www.pogodaiklimat.ru

АРХИВ ПОГОДЫ в Феодосии

Время (UTC), дата Ветер
(напр.,м/с)
 
Видим.   Явления Облачность Т
(С)
Тd
(С)
f
(%)
Тe
(С)
Тes
(С)
Комфортность P
(гПа)
Po
(гПа)
Тmin
(С)
Tmax
(С)
R
(мм)
S
(см)
03 11.01 В 3
{10}
4000 м дымка 10 баллов +3.7 +2.2 90 -0 -0 по сезону 1019.3 1016.0 -1.8
06 11.01 В 2 10 км 7 баллов +3.2 +1.4 88 0 0 по сезону 1020.6 1017.3 -0.1
09 11.01 Ю 2 10 км слабый ливневой дождь 10 баллов +5.8 +5.1 95 +3 +3 по сезону 1019.2 1016.0
12 11.01 С 2 10 км 7 баллов +4.9 +3.2 89 +2 +3 по сезону 1021.9 1018.7
15 11.01 З 2
{10}
10 км 4 балла +5.2 +1.7 78 +3 +3 по сезону 1021.9 1018.7 3
18 11.01 Ю 5
{10}
10 км 5 баллов +5.6 -2.7 55 +2 +2 по сезону 1023.2 1020.0 +7.8 3
21 11.01 Ю 4
{10}
10 км 7 баллов +6.2 +0.3 66 +3 +3 тепло 1023.2 1020.0
00 12.01 Ю 4
{11}
10 км 10 баллов +6.9 +1.2 67 +4 +4 тепло 1020.5 1017.3
03 12.01 Ю 5
{11}
10 км слабый ливневой дождь 10 баллов +6.6 +3.7 82 +2 +2 по сезону 1016.5 1013.3 +5.6 1
06 12.01 ЮВ 5
{11}
10 км 9 баллов +8.6 +5.0 78 +5 +5 тепло 1013.9 1010.7 +5.6 1
09 12.01 Ю 3
{10}
10 км 9 баллов +8.9 +3.7 70 +7 +7 тепло 1012.5 1009.3
12 12.01 СЗ 1 20 км 10 баллов +9.3 +3.3 66 +9 +9 тепло 1008.5 1005.3
15 12.01 З 3 4000 м слабый ливневой снег 10 баллов +0.8 -0.1 94 -4 -4 прохладно 1011.3 1008.0 6
18 12.01 З 3 10 км 7 баллов -0.2 -2.6 84 -5 -5 прохладно 1012.6 1009.3 +9.3 10
21 12.01 штиль 0 10 км 10 баллов +0.2 -1.2 90 -1 -1 по сезону 1014.0 1010.7
00 13.01 З 2 10 км 10 баллов -0.2 -1.6 90 -4 -4 по сезону 1016.6 1013.3
03 13.01 штиль 0 10 км 7 баллов -1.5 -3.2 88 -3 -3 по сезону 1018.0 1014.7 -1.5 4
06 13.01 штиль 0 10 км 2 балла -2.0 -3.6 89 -3 -3 по сезону 1019.3 1016.0 -2.3
09 13.01 С 1 10 км 7 баллов +2.6 -1.0 77 +1 +2 по сезону 1019.3 1016.0
12 13.01 СВ 1 10 км 7 баллов +4.5 -2.1 62 +4 +4 по сезону 1020.6 1017.3
15 13.01 Ю 2 10 км 2 балла +2.8 -3.3 64 0 0 по сезону 1020.6 1017.3
18 13.01 Ю 2 10 км ясно +3.5 -3.5 60 +1 +1 по сезону 1019.3 1016.0 +4.8
21 13.01 Ю 4 10 км 7 баллов +4.9 -1.8 62 +1 +1 по сезону 1017.9 1014.7
00 14.01 Ю 3
{10}
10 км 9 баллов +5.2 -0.6 66 +2 +2 по сезону 1017.9 1014.7
03 14.01 Ю 4
{11}
10 км 10 баллов +6.2 +0.9 69 +3 +3 тепло 1016.5 1013.3 +2.8
06 14.01 Ю 6
{14}
20 км 10 баллов +6.5 +1.0 68 +2 +2 тепло 1015.2 1012.0 +3.5
09 14.01 Ю 7
{15}
10 км 9 баллов +8.2 +0.2 57 +4 +4 тепло 1013.9 1010.7
12 14.01 ЮВ 4
{15}
20 км 9 баллов +7.9 +1.5 64 +5 +5 тепло 1013.9 1010.7
15 14.01 Ю 3
{10}
10 км 7 баллов +6.9 +1.6 69 +4 +4 тепло 1013.9 1010.7
18 14.01 ЮВ 5
{10}
10 км 7 баллов +6.8 +2.1 72 +3 +3 тепло 1012.5 1009.3 +9.2
21 14.01 В 4
{10}
10 км 9 баллов +7.2 +3.1 75 +4 +4 тепло 1012.5 1009.3
00 15.01 ЮВ 3 10 км 7 баллов +7.3 +4.1 80 +4 +4 тепло 1013.9 1010.7
03 15.01 В 3 10 км 10 баллов +7.0 +4.0 81 +4 +4 тепло 1012.5 1009.3 +6.6
06 15.01 В 3 10 км 7 баллов +7.4 +4.7 83 +5 +5 тепло 1013.9 1010.7 +6.7
09 15.01 В 1 10 км слабый ливневой дождь 7 баллов +8.1 +5.2 82 +7 +9 тепло 1015.2 1012.0
12 15.01 В 2 10 км 9 баллов +8.5 +4.7 77 +7 +7 тепло 1015.2 1012.0
15 15.01 З 2 4000 м дымка 10 баллов +5.8 +3.5 85 +3 +3 по сезону 1016.5 1013.3 0.4
18 15.01 З 3 4000 м слабый ливневой дождь 10 баллов +4.2 +3.5 95 0 0 по сезону 1019.2 1016.0 +8.6 4
21 15.01 З 2 4000 м слабый ливневой дождь 10 баллов +3.2 +2.2 93 0 0 по сезону 1020.6 1017.3
00 16.01 З 3 2000 м дымка 10 баллов +2.0 +1.1 94 -2 -2 по сезону 1020.6 1017.3
03 16.01 СЗ 3 2000 м дымка 10 баллов +1.0 +0.1 94 -4 -4 по сезону 1022.0 1018.7 +1.0 5
06 16.01 СЗ 3 1000 м дымка 10 баллов +1.0 +0.4 96 -4 -4 по сезону 1023.3 1020.0 +1.0 2
09 16.01 СЗ 2 2000 м дымка 10 баллов +0.8 -0.1 94 -3 -3 по сезону 1024.6 1021.3
12 16.01 СЗ 2 2000 м дымка 10 баллов +0.1 -1.0 92 -4 -4 прохладно 1023.3 1020.0
15 16.01 СЗ 2 10 км 10 баллов +0.5 -1.3 88 -3 -3 по сезону 1024.6 1021.3
18 16.01 С 2 10 км 10 баллов +0.3 -1.5 88 -3 -3 по сезону 1024.6 1021.3 +1.0
21 16.01 З 2 10 км 10 баллов +0.7 -1.9 83 -3 -3 по сезону 1024.6 1021.3
00 17.01 СЗ 2 4000 м слабый снег 10 баллов +0.3 -1.1 90 -3 -3 по сезону 1024.6 1021.3
03 17.01 З 2 4000 м слабый снег 10 баллов +0.5 -0.1 96 -3 -3 по сезону 1024.6 1021.3 +0.3 3
06 17.01 СЗ 2 10 км слабый дождь 10 баллов +1.0 +0.1 94 -3 -3 по сезону 1026.0 1022.7 +0.3 4
09 17.01 СЗ 2 4000 м дымка 10 баллов +1.4 +0.8 96 -2 -2 по сезону 1026.0 1022.7
12 17.01 СЗ 2 4000 м дымка 10 баллов +2.2 +1.3 94 -1 -1 по сезону 1026.0 1022.7
15 17.01 С 3 4000 м дымка 10 баллов +2.0 +1.4 96 -2 -2 по сезону 1026.0 1022.7 1
18 17.01 С 3 4000 м дымка 10 баллов +1.8 +1.2 96 -3 -3 по сезону 1027.3 1024.0 +2.3 0.0
21 17.01 С 3 2000 м дымка 10 баллов +1.6 +1.0 96 -3 -3 по сезону 1027.3 1024.0
00 18.01 С 3 2000 м в посл. час морось 10 баллов +1.8 +1.2 96 -3 -3 по сезону 1027.3 1024.0

 

Местоположение метеостанции Феодосия (Крым, Россия): широта 45.03 долгота 35.38 высота над уровнем моря 26 м.

В архиве по умолчанию представлена погода в Феодосии за последнюю неделю. Архивные данные за месяц целиком и за предыдущие месяцы, начиная с января 2011 года, Вы можете получить, выбрав интересующий диапазон дат из раскрывающегося списка и нажав кнопку "Ввод!".

Внимание! Время в таблицах - всемирное. Для получения местного времени необходимо прибавить поправку, которая в Феодосии равна 3 ч.

Ветер - указаны скорость ветра в м/с - средняя за 10 мин, порывы в срок и между сроками (в фигурных скобках) и направление, откуда дует ветер: С - северный, СВ - северо-восточный, В - восточный, ЮВ - юго-восточный, Ю - южный, ЮЗ - юго-западный, З - западный, СЗ - северо-западный.
Видимость - горизонтальная дальность видимости в метрах или километрах. При видимости от 1 до 10 км при отсутствии осадков обычно наблюдается дымка, при ухудшении видимости до 1 км и менее - туман. В сухую погоду видимость может ухудшаться дымом, пылью или мглою.
Явления - указаны атмосферные явления, наблюдавшиеся в срок или в последний час перед сроком; фигурными скобками обозначены явления, наблюдавшиеся между сроками (за 1-3 часа до срока); квадратными скобками обозначены град или гололедные отложения с указанием их диаметра в мм.
Облачность - указаны через наклонную черту общая и нижняя облачность в баллах и высота нижней границы облаков в метрах; квадратными скобками обозначены формы облаков: Ci - перистые, Cs - перисто-слоистые, Cc - перисто-кучевые, Ac - высококучевые, As - высокослоистые, Sc - слоисто-кучевые, Ns - слоисто-дождевые, Cu - кучевые, Cb - кучево-дождевые. Подробнее классификацию облаков см. в Атласе облаков (PDF).
T - Температура воздуха - температура, измеренная на высоте 2 м над землей.
Td - Температура точки росы - температура, при понижении до которой содержащийся в воздухе водяной пар достигнет насыщения.
f - Относительная влажность воздуха - влажноcть воздуха, измеренная на высоте 2 м над землей.
Te - Эффективная температура - температура, которую ощущает одетый по сезону человек в тени. Характеристика душности погоды. При расчете учитывается влияние влажности воздуха и скорости ветра на теплоощущения человека.
Tes - Эффективная температура на солнце - температура, которую ощущает человек, с поправкой на солнечный нагрев. Характеристика знойности погоды. Зависит от высоты солнца над горизонтом, облачности и скорости ветра. Ночью, в пасмурную погоду, а также при ветре 12 м/с и более поправка равна нулю.
P - Атмосферное давление - приведенное к уровню моря атмосферное давление.
Po - Атмосферное давление - измеренное на уровне метеостанции атмосферное давление.
Tmin - Минимальная температура - минимум температуры воздуха на высоте 2 м над землей.
Tmax - Максимальная температура - максимум температуры воздуха на высоте 2 м над землей.
R - Количество осадков - Количество выпавших осадков, мм. При наведении курсора мыши на число - период времени, за который выпало указанное количество осадков.
S - Снежный покров - Высота снежного покрова, см. При наведении курсора мыши на число - состояние снежного покрова и степень покрытия местности в баллах.